When you browse on this site, cookies collect data to enhance your experience and personalize the content and advertising you see.
Visit our Privacy Policy to learn more. By continuing to use the site, you agree to this use of cookies and data.
  • In Portugal
  • List of Countries
  • For 7 days
  • Water Temperature
  • Satellite Maps
  • Weather Map
  • Weather Widgets
  • user-avatar
    Login

    Hourly Weather Babarygino

    Today, 17 February, Sunday

    Time Temperature Precipitation Wind Pressure Humidity
    00:00 +1°C° 0 mm 6 mps 746 mmHg 79%
    01:00 -1°C° 0 mm 6 mps 746 mmHg 81%
    02:00 +1°C° 0 mm 5 mps 745 mmHg 83%
    03:00 +1°C° 0 mm 5 mps 745 mmHg 85%
    04:00 0°C° 0 mm 5 mps 745 mmHg 87%
    05:00 0°C° 0 mm 5 mps 745 mmHg 89%
    06:00 0°C° 0 mm 5 mps 746 mmHg 88%
    07:00 -1°C° 0 mm 5 mps 746 mmHg 88%
    08:00 -1°C° 0 mm 5 mps 746 mmHg 87%
    09:00 -1°C° 0 mm 5 mps 747 mmHg 83%
    10:00 -2°C° 0 mm 6 mps 747 mmHg 80%
    11:00 -2°C° 0 mm 6 mps 747 mmHg 76%
    12:00 -1°C° 0 mm 6 mps 748 mmHg 75%
    13:00 -1°C° 0 mm 6 mps 748 mmHg 73%
    14:00 -1°C° 0 mm 6 mps 749 mmHg 72%
    15:00 -1°C° 0 mm 6 mps 749 mmHg 73%
    16:00 -1°C° 0 mm 5 mps 750 mmHg 74%
    17:00 -2°C° 0 mm 5 mps 750 mmHg 75%
    18:00 -2°C° 0 mm 5 mps 751 mmHg 76%
    19:00 -4°C° 0 mm 5 mps 752 mmHg 76%
    20:00 -4°C° 0 mm 5 mps 752 mmHg 77%
    21:00 -3°C° 0 mm 4 mps 753 mmHg 77%
    22:00 -4°C° 0 mm 4 mps 754 mmHg 78%
    23:00 -4°C° 0 mm 4 mps 754 mmHg 78%

    Tomorrow, 18 February, Monday

    Time Temperature Precipitation Wind Pressure Humidity
    00:00 -5°C° 0 mm 3 mps 755 mmHg 79%
    01:00 -5°C° 0 mm 3 mps 756 mmHg 80%
    02:00 -6°C° 0 mm 3 mps 756 mmHg 81%
    03:00 -6°C° 0 mm 3 mps 757 mmHg 82%
    04:00 -5°C° 0 mm 2 mps 757 mmHg 83%
    05:00 -6°C° 0 mm 2 mps 758 mmHg 85%
    06:00 -6°C° 0 mm 2 mps 758 mmHg 85%
    07:00 -6°C° 0 mm 2 mps 758 mmHg 86%
    08:00 -6°C° 0 mm 2 mps 759 mmHg 87%
    09:00 -3°C° 0 mm 1 mps 759 mmHg 81%
    10:00 -2°C° 0 mm 1 mps 759 mmHg 75%
    11:00 -1°C° 0 mm 1 mps 760 mmHg 69%
    12:00 -1°C° 0 mm 1 mps 759 mmHg 65%
    13:00 0°C° 0 mm 1 mps 759 mmHg 62%
    14:00 -1°C° 0 mm 0 mps 759 mmHg 59%
    15:00 0°C° 0 mm 1 mps 759 mmHg 63%
    16:00 -1°C° 0 mm 1 mps 759 mmHg 68%
    17:00 -2°C° 0 mm 1 mps 759 mmHg 72%
    18:00 -2°C° 0 mm 1 mps 759 mmHg 73%
    19:00 -4°C° 0 mm 2 mps 758 mmHg 74%
    20:00 -4°C° 0 mm 2 mps 758 mmHg 75%
    21:00 -5°C° 0 mm 3 mps 758 mmHg 74%
    22:00 -5°C° 0 mm 3 mps 758 mmHg 72%
    23:00 -5°C° 0 mm 3 mps 757 mmHg 71%

    Day after tomorrow, 19 February, Tuesday

    Time Temperature Precipitation Wind Pressure Humidity
    00:00 -5°C° 0 mm 4 mps 757 mmHg 69%
    01:00 -4°C° 0 mm 4 mps 756 mmHg 68%
    02:00 -4°C° 0 mm 4 mps 756 mmHg 66%
    03:00 -4°C° 0 mm 4 mps 755 mmHg 70%
    04:00 -4°C° 0 mm 4 mps 754 mmHg 74%
    05:00 -4°C° 0 mm 5 mps 753 mmHg 77%
    06:00 -4°C° 0 mm 5 mps 753 mmHg 80%
    07:00 -4°C° 0 mm 5 mps 753 mmHg 82%
    08:00 -4°C° 0 mm 5 mps 752 mmHg 84%
    09:00 -2°C° 0 mm 5 mps 752 mmHg 81%
    10:00 -1°C° 0 mm 5 mps 751 mmHg 79%
    11:00 0°C° 0 mm 5 mps 751 mmHg 77%
    12:00 +1°C° 0 mm 5 mps 750 mmHg 77%
    13:00 +1°C° 0 mm 5 mps 749 mmHg 76%
    14:00 +1°C° 0 mm 5 mps 749 mmHg 76%
    15:00 +1°C° 0 mm 5 mps 748 mmHg 79%
    16:00 0°C° 0 mm 4 mps 747 mmHg 81%
    17:00 0°C° 0 mm 4 mps 747 mmHg 84%
    18:00 0°C° 0 mm 4 mps 746 mmHg 85%
    19:00 0°C° 0 mm 5 mps 745 mmHg 87%
    20:00 0°C° 0 mm 5 mps 745 mmHg 88%
    21:00 0°C° 0 mm 5 mps 744 mmHg 88%
    22:00 0°C° 0 mm 5 mps 744 mmHg 88%
    23:00 0°C° 0 mm 5 mps 743 mmHg 87%

    20 February, Wednesday

    Time Temperature Precipitation Wind Pressure Humidity
    00:00 0°C° 0.5 mm 5 mps 743 mmHg 88%
    01:00 0°C° 0.5 mm 5 mps 742 mmHg 89%
    02:00 0°C° 0.5 mm 4 mps 742 mmHg 89%
    03:00 0°C° 0 mm 4 mps 742 mmHg 90%
    04:00 0°C° 0 mm 4 mps 741 mmHg 91%
    05:00 0°C° 0 mm 4 mps 741 mmHg 92%
    06:00 0°C° 0.2 mm 4 mps 741 mmHg 90%
    07:00 0°C° 0.2 mm 5 mps 741 mmHg 88%
    08:00 +1°C° 0.2 mm 5 mps 741 mmHg 87%
    09:00 +1°C° 0.2 mm 5 mps 740 mmHg 85%
    10:00 +1°C° 0.2 mm 6 mps 740 mmHg 83%
    11:00 +2°C° 0.2 mm 6 mps 740 mmHg 81%
    12:00 +1°C° 0.2 mm 6 mps 740 mmHg 81%
    13:00 +1°C° 0.2 mm 6 mps 740 mmHg 80%
    14:00 +1°C° 0.2 mm 6 mps 739 mmHg 80%
    15:00 -1°C° 0.1 mm 6 mps 740 mmHg 76%
    16:00 -1°C° 0.1 mm 5 mps 740 mmHg 72%
    17:00 -2°C° 0.1 mm 5 mps 740 mmHg 68%
    18:00 -2°C° 0.1 mm 5 mps 740 mmHg 72%
    19:00 -4°C° 0.1 mm 5 mps 741 mmHg 76%
    20:00 -4°C° 0.1 mm 6 mps 741 mmHg 81%
    21:00 -4°C° 0.4 mm 6 mps 741 mmHg 81%
    22:00 -4°C° 0.4 mm 7 mps 742 mmHg 82%
    23:00 -4°C° 0.4 mm 7 mps 742 mmHg 82%

    21 February, Thursday

    Time Temperature Precipitation Wind Pressure Humidity
    00:00 -6°C° 0.1 mm 7 mps 742 mmHg 79%
    01:00 -6°C° 0.1 mm 7 mps 743 mmHg 76%
    02:00 -7°C° 0.1 mm 7 mps 744 mmHg 72%
    03:00 -7°C° 0.1 mm 7 mps 744 mmHg 71%
    04:00 -8°C° 0.1 mm 7 mps 745 mmHg 69%
    05:00 -8°C° 0.1 mm 7 mps 746 mmHg 68%
    06:00 -9°C° 0.1 mm 7 mps 747 mmHg 69%
    07:00 -9°C° 0.1 mm 7 mps 748 mmHg 69%
    08:00 -9°C° 0.1 mm 7 mps 749 mmHg 70%
    09:00 -9°C° 0 mm 7 mps 750 mmHg 68%
    10:00 -9°C° 0 mm 7 mps 751 mmHg 65%
    11:00 -8°C° 0 mm 7 mps 752 mmHg 63%
    12:00 -8°C° 0 mm 7 mps 752 mmHg 63%
    13:00 -8°C° 0 mm 7 mps 753 mmHg 62%
    14:00 -8°C° 0 mm 6 mps 754 mmHg 62%
    15:00 -8°C° 0 mm 6 mps 755 mmHg 64%
    16:00 -9°C° 0 mm 6 mps 755 mmHg 65%
    17:00 -9°C° 0 mm 6 mps 756 mmHg 67%
    18:00 -8°C° 0 mm 5 mps 757 mmHg 67%
    19:00 -10°C° 0 mm 5 mps 758 mmHg 68%
    20:00 -10°C° 0 mm 5 mps 758 mmHg 69%
    21:00 -11°C° 0 mm 5 mps 759 mmHg 70%
    22:00 -11°C° 0 mm 5 mps 759 mmHg 71%
    23:00 -10°C° 0 mm 4 mps 760 mmHg 72%

    22 February, Friday

    Time Temperature Precipitation Wind Pressure Humidity
    00:00 -10°C° 0 mm 4 mps 761 mmHg 74%
    01:00 -10°C° 0 mm 4 mps 761 mmHg 76%
    02:00 -11°C° 0 mm 4 mps 762 mmHg 78%
    03:00 -10°C° 0 mm 3 mps 762 mmHg 79%
    04:00 -10°C° 0 mm 3 mps 763 mmHg 80%
    05:00 -10°C° 0 mm 3 mps 763 mmHg 81%
    06:00 -10°C° 0 mm 3 mps 764 mmHg 81%
    07:00 -10°C° 0 mm 3 mps 765 mmHg 81%
    08:00 -10°C° 0 mm 3 mps 765 mmHg 81%
    09:00 -9°C° 0 mm 3 mps 766 mmHg 75%
    10:00 -8°C° 0 mm 3 mps 767 mmHg 70%
    11:00 -7°C° 0 mm 3 mps 767 mmHg 65%
    12:00 -6°C° 0 mm 3 mps 767 mmHg 61%
    13:00 -7°C° 0 mm 4 mps 768 mmHg 57%
    14:00 -5°C° 0 mm 4 mps 768 mmHg 53%
    15:00 -5°C° 0 mm 3 mps 769 mmHg 56%
    16:00 -6°C° 0 mm 3 mps 769 mmHg 58%
    17:00 -6°C° 0 mm 3 mps 769 mmHg 61%
    18:00 -7°C° 0 mm 3 mps 770 mmHg 65%
    19:00 -7°C° 0 mm 3 mps 770 mmHg 69%
    20:00 -8°C° 0 mm 3 mps 770 mmHg 73%
    21:00 -7°C° 0 mm 2 mps 771 mmHg 74%
    22:00 -7°C° 0 mm 2 mps 771 mmHg 76%
    23:00 -8°C° 0 mm 2 mps 771 mmHg 78%
    Show more